[[{"header":{"parameterUnit":"m.s-1","parameterCategory":1,"la1":30.2991,"la2":30.254,"lo1":-89.0895,"lo2":-89.0444,"dy":0.0017,"dx":0.0017,"nx":28,"ny":28,"refTime":"2024-05-01T09:00:00:Z","depth":0,"parameterNumber":2,"parameterNumberName":"U-component_of_WINDS"},"data":[0,0,0,0,0,0,0,0,0,0,0,0,0,0,0,0,0,0,0,0,0,0,0,0,0,0,0,0,0,0,0,0,0,0,0,0,0,0,0,0,0,0,0,0,0,0,0,0,0,0,0,0,0,0,0,0,0,0,-4.2802,-4.2802,0,-4.2826,-4.2826,-4.2827,-4.2756,-4.2754,-4.2752,-4.275,-4.2774,-4.2777,-4.2779,0,0,0,0,0,0,0,0,0,0,0,0,0,-4.2695,-4.2698,-4.2802,-4.2802,-4.2803,-4.2826,-4.2826,-4.2827,-4.2756,-4.2754,-4.2751,-4.2749,-4.2773,-4.2777,-4.278,0,0,0,0,0,0,0,0,0,0,0,0,0,-4.2733,-4.2699,-4.2802,-4.277,-4.2768,-4.2826,-4.2826,-4.2827,-4.2757,-4.2754,-4.275,-4.2747,-4.2772,-4.2776,-4.278,-4.287,0,0,-4.2792,-4.2794,0,0,0,0,0,0,0,0,-4.2731,-4.2737,-4.2775,-4.2773,-4.277,-4.2785,-4.2798,-4.2841,-4.2758,-4.2761,-4.2749,-4.2746,-4.278,-4.2784,-4.2795,-4.2871,-4.2872,-4.2793,-4.2795,-4.2797,-4.2798,0,0,0,0,0,0,0,-4.2728,-4.2735,-4.2812,-4.2775,-4.2772,-4.2755,-4.2757,-4.2806,-4.2789,-4.276,-4.2755,-4.2759,-4.2778,-4.2791,-4.2795,-4.2873,-4.2793,-4.2796,-4.2799,-4.28,-4.3023,-4.3027,0,0,0,0,0,0,-4.273,-4.2734,-4.2811,-4.2812,-4.2742,-4.276,-4.2762,-4.2783,-4.2788,-4.2786,-4.2762,-4.2756,-4.2786,-4.2791,-4.2796,-4.29,-4.2797,-4.2801,-4.2803,-4.302,-4.3024,-4.3028,0,0,0,0,0,0,-4.2728,-4.2737,-4.281,-4.2772,-4.278,-4.2765,-4.279,-4.2785,-4.2798,-4.2789,-4.2786,-4.2778,-4.2784,-4.279,-4.2852,-4.29,-4.2803,-4.2806,-4.3016,-4.3021,-4.3026,-4.3111,0,0,0,0,0,0,-4.2725,-4.2737,-4.2771,-4.2773,-4.2782,-4.2866,-4.2793,-4.2788,-4.2805,-4.2798,-4.2804,-4.2801,-4.2782,-4.2846,-4.2856,-4.2904,-4.2809,-4.3011,-4.3018,-4.3024,-4.3104,-4.3118,-4.3131,0,0,0,0,0,-4.2722,-4.2794,-4.2773,-4.2783,-4.2824,-4.2869,-4.2874,-4.285,-4.281,-4.2843,-4.2838,-4.2801,-4.2894,-4.2853,-4.2864,-4.2913,-4.3008,-4.3016,-4.3024,-4.3097,-4.3115,-4.3131,0,0,0,0,0,0,-4.2798,-4.2794,-4.277,-4.2846,-4.2858,-4.2857,-4.2898,-4.287,-4.2893,-4.2885,-4.2854,-4.2856,-4.2924,-4.2925,-4.288,-4.3001,-4.2944,-4.2954,-4.2997,-4.3014,-4.3027,-4.3024,-4.2813,0,0,0,0,0,-4.2824,-4.2861,-4.2855,-4.2922,-4.2929,-4.2913,-4.2932,-4.2912,-4.2924,-4.2929,-4.2927,-4.294,-4.2971,-4.2993,-4.3022,-4.3104,-4.3104,-4.3144,-4.3158,-4.3169,-4.3177,-4.322,-4.3237,-4.3054,-4.3054,-4.3054,0,0,-4.2877,-4.2879,-4.2904,-4.2937,-4.2945,-4.2983,-4.2918,-4.2962,-4.2989,-4.2935,-4.2993,-4.2993,-4.3005,-4.3077,-4.3109,-4.308,-4.3228,-4.3179,-4.3188,-4.319,-4.323,-4.3247,-4.3263,-4.3059,-4.3058,-4.3057,0,0,-4.2993,-4.3,-4.3055,-4.3064,-4.3076,-4.3065,-4.3079,-4.3082,-4.3079,-4.3137,-4.3097,-4.313,-4.3186,-4.3196,-4.3208,-4.333,-4.3296,-4.334,-4.3411,-4.3453,-4.3467,-4.348,-4.3521,-4.3537,-4.3349,-4.3349,-4.335,0,-4.3058,-4.3114,-4.3088,-4.3134,-4.3149,-4.3103,-4.3159,-4.3169,-4.319,-4.3201,-4.3169,-4.3238,-4.3243,-4.3316,-4.3346,-4.3358,-4.3372,-4.3338,-4.3467,-4.3479,-4.3491,-4.353,-4.3546,-4.3354,-4.3354,-4.3353,-4.3353,0,-4.3192,-4.3232,-4.3276,-4.3297,-4.3317,-4.3369,-4.335,-4.3374,-4.3354,-4.3346,-4.3405,-4.341,-4.3438,-4.3455,-4.3435,-4.3526,-4.3507,-4.3472,-4.3414,-4.3514,-4.355,-4.3565,-4.3362,-4.336,-4.3358,-4.3357,0,0,-4.3355,-4.3362,-4.3378,-4.3387,-4.3397,-4.3427,-4.3477,-4.3504,-4.3525,-4.3542,-4.3581,-4.363,-4.3597,-4.3612,-4.3593,-4.363,-4.3724,-4.359,-4.359,-4.3613,-4.3823,-4.3848,-4.3866,-4.3703,-4.3706,-4.3709,-4.3821,0,-4.3468,-4.3552,-4.353,-4.3613,-4.3649,-4.3606,-4.3649,-4.366,-4.3654,-4.3684,-4.3678,-4.3712,-4.3667,-4.3675,-4.3711,-4.3705,-4.3765,-4.3697,-4.3739,-4.3741,-4.3735,-4.3885,-4.3911,-4.4017,-4.3835,-4.3838,-4.3839,0,-4.3611,-4.3632,-4.3719,-4.3723,-4.3737,-4.3776,-4.3799,-4.3829,-4.3841,-4.3834,-4.3851,-4.3824,-4.3873,-4.3817,-4.3882,-4.3836,-4.3853,-4.3853,-4.3857,-4.3858,-4.3794,-4.3888,-4.4051,-4.4066,-4.3862,-4.386,-4.3859,0,-4.3719,-4.377,-4.3828,-4.3837,-4.3844,-4.3872,-4.3876,-4.3884,-4.3903,-4.3924,-4.3935,-4.3962,-4.3976,-4.3998,-4.3979,-4.3941,-4.4048,-4.399,-4.4043,-4.4043,-4.4065,-4.4064,-4.4231,-4.408,-4.408,-4.4079,-4.4079,0,-4.3846,-4.39,-4.3876,-4.3912,-4.3972,-4.3947,-4.4006,-4.4006,-4.4014,-4.4048,-4.4014,-4.4047,-4.4022,-4.4053,-4.4039,-4.4095,-4.4102,-4.4098,-4.4093,-4.41,-4.41,-4.4108,-4.4099,-4.4083,-4.4082,-4.4082,-4.4081,0,-4.3975,-4.3962,-4.4022,-4.4024,-4.4026,-4.4069,-4.407,-4.4103,-4.4096,-4.414,-4.4149,-4.4138,-4.4172,-4.4157,-4.4194,-4.4185,-4.4256,-4.4243,-4.4252,-4.4247,-4.43,-4.4295,-4.4476,-4.4498,-4.4335,-4.4337,-4.4338,0,-4.4056,-4.4097,-4.4103,-4.4124,-4.413,-4.4164,-4.4182,-4.416,-4.418,-4.4197,-4.4228,-4.426,-4.4284,-4.4342,-4.4336,-4.4364,-4.435,-4.4412,-4.4354,-4.4359,-4.4349,-4.4346,-4.4349,-4.4423,-4.4425,-4.4426,-4.4427,0,-4.4201,-4.4192,-4.422,-4.4246,-4.4268,-4.4288,-4.4304,-4.4323,-4.4301,-4.4326,-4.4361,-4.438,-4.4417,-4.4449,-4.4474,-4.4478,-4.4449,-4.4446,-4.4459,-4.4465,-4.4468,-4.4465,-4.4281,-4.4441,-4.444,-4.4439,-4.4438,-4.4438,-4.4307,-4.4341,-4.435,-4.4382,-4.4392,-4.4408,-4.4439,-4.4436,-4.4464,-4.4493,-4.4478,-4.4519,-4.453,-4.456,-4.4568,-4.4599,-4.4575,-4.4595,-4.4599,-4.4604,-4.461,-4.4465,-4.4604,-4.4604,-4.4603,-4.4603,-4.4603,0,-4.4448,-4.4452,-4.4482,-4.4505,-4.4531,-4.4502,-4.4519,-4.4541,-4.4578,-4.459,-4.4615,-4.4655,-4.4686,-4.4684,-4.4712,-4.4737,-4.4725,-4.4745,-4.4742,-4.4743,-4.4631,-4.4616,-4.4755,-4.4755,-4.4755,-4.4755,-4.4755,-4.4755,-4.4524,-4.4579,-4.4572,-4.4632,-4.4636,-4.4675,-4.4687,-4.4701,-4.4711,-4.4757,-4.4783,-4.4781,-4.4788,-4.4816,-4.4843,-4.4842,-4.4853,-4.4878,-4.4872,-4.4766,-4.4751,-4.4737,-4.4722,-4.4881,-4.4881,-4.4981,-4.4982,-4.4982]},{"header":{"parameterUnit":"m.s-1","parameterCategory":1,"la1":30.2991,"la2":30.254,"lo1":-89.0895,"lo2":-89.0444,"dy":0.0017,"dx":0.0017,"nx":28,"ny":28,"refTime":"2024-05-01T09:00:00:Z","depth":0,"parameterNumber":3,"parameterNumberName":"V-component_of_WINDS"},"data":[0,0,0,0,0,0,0,0,0,0,0,0,0,0,0,0,0,0,0,0,0,0,0,0,0,0,0,0,0,0,0,0,0,0,0,0,0,0,0,0,0,0,0,0,0,0,0,0,0,0,0,0,0,0,0,0,0,0,3.9283,3.9284,0,3.932,3.932,3.9321,3.9277,3.9275,3.9274,3.9272,3.9307,3.931,3.9312,0,0,0,0,0,0,0,0,0,0,0,0,0,3.9173,3.9176,3.9283,3.9284,3.9284,3.932,3.932,3.9321,3.9277,3.9275,3.9273,3.9271,3.9307,3.9309,3.9312,0,0,0,0,0,0,0,0,0,0,0,0,0,3.9217,3.9176,3.9283,3.9267,3.9266,3.932,3.9321,3.9321,3.9277,3.9275,3.9273,3.927,3.9306,3.9309,3.9313,3.9384,0,0,3.9324,3.9326,0,0,0,0,0,0,0,0,3.9214,3.9221,3.9269,3.9268,3.9267,3.9291,3.9295,3.9342,3.9278,3.9273,3.9272,3.9269,3.9304,3.9308,3.932,3.9386,3.9388,3.9324,3.9327,3.9328,3.9329,0,0,0,0,0,0,0,3.9211,3.9219,3.9298,3.9269,3.9268,3.9257,3.926,3.9303,3.9302,3.9273,3.927,3.9275,3.9303,3.9316,3.932,3.9388,3.9324,3.9328,3.933,3.9331,3.9516,3.9519,0,0,0,0,0,0,3.9211,3.9217,3.9297,3.9299,3.9234,3.9261,3.9265,3.9286,3.9301,3.9301,3.9277,3.9273,3.9311,3.9316,3.9321,3.9407,3.9328,3.9332,3.9334,3.9514,3.9517,3.952,0,0,0,0,0,0,3.9208,3.9218,3.9295,3.9257,3.9266,3.9265,3.929,3.9288,3.9301,3.9304,3.9303,3.9291,3.9309,3.9316,3.9369,3.9408,3.9333,3.9337,3.951,3.9515,3.9518,3.9579,0,0,0,0,0,0,3.9205,3.9218,3.9245,3.9258,3.9268,3.9343,3.9292,3.929,3.9308,3.9303,3.9317,3.9317,3.9308,3.9364,3.9373,3.9411,3.9339,3.9507,3.9512,3.9517,3.9574,3.9585,3.9594,0,0,0,0,0,3.9202,3.926,3.9247,3.9257,3.9303,3.9346,3.9351,3.934,3.9311,3.9339,3.9341,3.9317,3.9402,3.937,3.938,3.942,3.9504,3.9511,3.9517,3.9569,3.9582,3.9594,0,0,0,0,0,0,3.925,3.9261,3.9247,3.9311,3.9328,3.9338,3.9373,3.9355,3.938,3.9374,3.9358,3.9362,3.9419,3.9424,3.9389,3.949,3.9448,3.9457,3.9485,3.9498,3.9508,3.9506,3.9343,0,0,0,0,0,3.9269,3.9304,3.9311,3.9367,3.9376,3.9373,3.9391,3.9382,3.9398,3.9405,3.941,3.9427,3.9457,3.9478,3.9506,3.9574,3.9577,3.9606,3.9616,3.9625,3.9632,3.967,3.9684,3.954,3.954,3.954,0,0,3.9307,3.9317,3.934,3.9377,3.9389,3.9425,3.9379,3.9419,3.9445,3.941,3.9462,3.9467,3.9484,3.9545,3.9573,3.9552,3.9673,3.9633,3.9639,3.9642,3.9678,3.9691,3.9703,3.9544,3.9543,3.9542,0,0,3.9395,3.9406,3.9455,3.9468,3.9487,3.9485,3.9497,3.951,3.9512,3.9564,3.9538,3.9569,3.9622,3.9636,3.9649,3.9744,3.9723,3.9753,3.9807,3.9844,3.9855,3.9865,3.99,3.9913,3.9761,3.9761,3.9761,0,3.944,3.9494,3.9482,3.9524,3.9541,3.9512,3.9561,3.9574,3.9601,3.9614,3.959,3.9657,3.9666,3.9731,3.9754,3.9766,3.9779,3.9752,3.9855,3.9865,3.9874,3.9907,3.992,3.9765,3.9764,3.9764,3.9763,0,3.9549,3.9587,3.9624,3.9652,3.9673,3.9718,3.9713,3.9736,3.9724,3.9724,3.9778,3.9788,3.9818,3.9833,3.9821,3.9896,3.9883,3.9857,3.9815,3.9891,3.9922,3.9935,3.977,3.9768,3.9767,3.9767,0,0,3.9669,3.9691,3.9705,3.9718,3.9737,3.9766,3.9809,3.984,3.9861,3.988,3.9917,3.9963,3.994,3.9955,3.9945,3.9977,4.0053,3.9948,3.9948,3.9968,4.0138,4.0158,4.0172,4.0039,4.0041,4.0043,4.0136,0,3.9758,3.9836,3.9827,3.9901,3.9936,3.9909,3.9947,3.9963,3.9965,3.9994,3.9995,4.0029,3.9995,4.0004,4.0035,4.0037,4.0087,4.003,4.0073,4.0075,4.0071,4.0188,4.0209,4.0297,4.0148,4.015,4.0152,0,3.9873,3.9898,3.9977,3.9992,4.0006,4.0041,4.0069,4.0097,4.0115,4.0113,4.0132,4.0116,4.016,4.0117,4.0177,4.0139,4.0156,4.016,4.0163,4.0167,4.0119,4.0197,4.0324,4.0338,4.017,4.0169,4.0168,0,3.9954,4.0008,4.0062,4.0073,4.0092,4.0117,4.0126,4.0141,4.016,4.0184,4.0197,4.0225,4.0241,4.0263,4.0256,4.0225,4.0318,4.0274,4.0319,4.0319,4.034,4.0339,4.0474,4.035,4.035,4.0349,4.0349,0,4.0056,4.0105,4.0099,4.0132,4.0186,4.0175,4.0228,4.0234,4.0247,4.0281,4.0259,4.0291,4.0278,4.0309,4.0303,4.0355,4.0362,4.0362,4.036,4.0365,4.0365,4.0376,4.0371,4.0353,4.0352,4.0351,4.0351,0,4.0156,4.0154,4.0211,4.0224,4.0229,4.0268,4.0279,4.0311,4.031,4.0353,4.0363,4.0362,4.0398,4.0392,4.0431,4.0427,4.0492,4.0482,4.0487,4.0485,4.0531,4.0527,4.0678,4.0698,4.056,4.0561,4.0562,0,4.0222,4.0259,4.0277,4.0298,4.0309,4.0344,4.0364,4.0354,4.0376,4.0399,4.0427,4.0461,4.0488,4.0546,4.0548,4.0578,4.057,4.062,4.0574,4.0578,4.0572,4.057,4.0574,4.063,4.0631,4.0633,4.0634,0,4.0339,4.0336,4.0366,4.0397,4.0422,4.0445,4.0466,4.0484,4.0476,4.0502,4.0538,4.0559,4.06,4.0634,4.0662,4.067,4.0651,4.0648,4.0661,4.0666,4.0668,4.0669,4.0513,4.0645,4.0644,4.0643,4.0642,4.0642,4.0424,4.0457,4.0475,4.051,4.0524,4.0545,4.0575,4.0579,4.061,4.0643,4.0635,4.0677,4.0693,4.073,4.0741,4.0773,4.0754,4.0772,4.0776,4.0781,4.0787,4.0662,4.0778,4.0778,4.0777,4.0777,4.0777,0,4.0541,4.0551,4.0584,4.0614,4.0642,4.0622,4.0644,4.0669,4.0706,4.0724,4.0751,4.0793,4.0826,4.0832,4.0863,4.0888,4.088,4.0897,4.0895,4.0898,4.0802,4.0789,4.0903,4.0903,4.0903,4.0903,4.0903,4.0903,4.0605,4.066,4.0659,4.0721,4.073,4.0772,4.0787,4.0805,4.082,4.0869,4.0896,4.09,4.0913,4.0945,4.0975,4.0976,4.0989,4.1009,4.1007,4.0917,4.0904,4.0892,4.088,4.1012,4.1012,4.11,4.1101,4.1101]}]]